Hourly Weather Rudnevo

Today, 20 April, Tuesday

Time Temperature Precipitation Wind Pressure Humidity
00:00 +4°C° 0.1 mm 4 mps 743 mmHg 93%
01:00 +4°C° 0.1 mm 4 mps 742 mmHg 93%
02:00 +4°C° 0.1 mm 4 mps 742 mmHg 94%
03:00 +4°C° 0.1 mm 4 mps 742 mmHg 94%
04:00 +3°C° 0.1 mm 5 mps 742 mmHg 93%
05:00 +3°C° 0.1 mm 5 mps 741 mmHg 93%
06:00 +3°C° 0.1 mm 5 mps 741 mmHg 92%
07:00 +5°C° 0.1 mm 5 mps 741 mmHg 91%
08:00 +5°C° 0.1 mm 5 mps 741 mmHg 90%
09:00 +6°C° 0 mm 5 mps 741 mmHg 85%
10:00 +7°C° 0 mm 6 mps 740 mmHg 80%
11:00 +8°C° 0 mm 6 mps 740 mmHg 75%
12:00 +7°C° 0 mm 6 mps 740 mmHg 78%
13:00 +7°C° 0 mm 6 mps 739 mmHg 81%
14:00 +5°C° 0 mm 6 mps 739 mmHg 84%
15:00 +4°C° 0 mm 6 mps 739 mmHg 88%
16:00 +3°C° 0 mm 5 mps 738 mmHg 91%
17:00 +2°C° 0 mm 5 mps 738 mmHg 94%
18:00 +2°C° 0 mm 5 mps 737 mmHg 94%
19:00 +2°C° 0 mm 5 mps 737 mmHg 95%
20:00 +2°C° 0 mm 5 mps 736 mmHg 95%
21:00 +1°C° 0.3 mm 5 mps 735 mmHg 95%
22:00 +1°C° 0.3 mm 4 mps 734 mmHg 96%
23:00 +1°C° 0.3 mm 4 mps 734 mmHg 96%

Tomorrow, 21 April, Wednesday

Time Temperature Precipitation Wind Pressure Humidity
00:00 0°C° 0.7 mm 4 mps 733 mmHg 97%
01:00 +1°C° 0.7 mm 3 mps 733 mmHg 98%
02:00 +1°C° 0.7 mm 3 mps 732 mmHg 98%
03:00 +1°C° 0.3 mm 3 mps 732 mmHg 99%
04:00 +1°C° 0.3 mm 3 mps 732 mmHg 99%
05:00 +1°C° 0.3 mm 3 mps 732 mmHg 99%
06:00 +1°C° 0 mm 3 mps 733 mmHg 98%
07:00 +1°C° 0 mm 3 mps 733 mmHg 98%
08:00 +1°C° 0 mm 3 mps 734 mmHg 97%
09:00 +1°C° 0 mm 4 mps 734 mmHg 94%
10:00 +1°C° 0 mm 4 mps 734 mmHg 92%
11:00 +2°C° 0 mm 5 mps 735 mmHg 89%
12:00 +2°C° 0 mm 5 mps 735 mmHg 88%
13:00 +4°C° 0 mm 4 mps 736 mmHg 86%
14:00 +4°C° 0 mm 4 mps 737 mmHg 84%
15:00 +5°C° 0 mm 4 mps 737 mmHg 83%
16:00 +5°C° 0 mm 4 mps 737 mmHg 83%
17:00 +5°C° 0 mm 3 mps 738 mmHg 82%
18:00 +5°C° 0 mm 3 mps 738 mmHg 85%
19:00 +4°C° 0 mm 3 mps 738 mmHg 87%
20:00 +5°C° 0 mm 2 mps 739 mmHg 90%
21:00 +4°C° 0 mm 2 mps 739 mmHg 90%
22:00 +4°C° 0 mm 2 mps 739 mmHg 90%
23:00 +4°C° 0 mm 2 mps 740 mmHg 91%

Day after tomorrow, 22 April, Thursday

Time Temperature Precipitation Wind Pressure Humidity
00:00 +4°C° 0 mm 2 mps 740 mmHg 91%
01:00 +4°C° 0 mm 2 mps 740 mmHg 92%
02:00 +4°C° 0 mm 2 mps 740 mmHg 92%
03:00 +4°C° 0 mm 2 mps 740 mmHg 92%
04:00 +3°C° 0 mm 2 mps 741 mmHg 93%
05:00 +3°C° 0 mm 2 mps 741 mmHg 93%
06:00 +5°C° 0 mm 2 mps 741 mmHg 88%
07:00 +5°C° 0 mm 3 mps 742 mmHg 83%
08:00 +7°C° 0 mm 3 mps 742 mmHg 79%
09:00 +8°C° 0 mm 3 mps 742 mmHg 72%
10:00 +10°C° 0 mm 3 mps 742 mmHg 65%
11:00 +11°C° 0 mm 3 mps 742 mmHg 57%
12:00 +11°C° 0 mm 3 mps 742 mmHg 56%
13:00 +12°C° 0 mm 3 mps 742 mmHg 54%
14:00 +12°C° 0 mm 3 mps 742 mmHg 52%
15:00 +13°C° 0 mm 2 mps 742 mmHg 55%
16:00 +13°C° 0 mm 2 mps 742 mmHg 57%
17:00 +13°C° 0 mm 2 mps 742 mmHg 59%
18:00 +12°C° 0 mm 2 mps 742 mmHg 69%
19:00 +9°C° 0 mm 2 mps 743 mmHg 79%
20:00 +7°C° 0 mm 3 mps 743 mmHg 88%
21:00 +7°C° 0 mm 3 mps 743 mmHg 90%
22:00 +7°C° 0 mm 3 mps 742 mmHg 92%
23:00 +5°C° 0 mm 3 mps 742 mmHg 93%

23 April, Friday

Time Temperature Precipitation Wind Pressure Humidity
00:00 +5°C° 0 mm 3 mps 742 mmHg 93%
01:00 +5°C° 0 mm 3 mps 742 mmHg 94%
02:00 +5°C° 0 mm 3 mps 742 mmHg 94%
03:00 +5°C° 0 mm 3 mps 742 mmHg 94%
04:00 +5°C° 0 mm 3 mps 742 mmHg 93%
05:00 +5°C° 0 mm 3 mps 742 mmHg 93%
06:00 +7°C° 0 mm 4 mps 742 mmHg 87%
07:00 +10°C° 0 mm 4 mps 742 mmHg 81%
08:00 +10°C° 0 mm 5 mps 742 mmHg 75%
09:00 +13°C° 0.1 mm 5 mps 742 mmHg 68%
10:00 +14°C° 0.1 mm 6 mps 742 mmHg 61%
11:00 +16°C° 0.1 mm 7 mps 741 mmHg 54%
12:00 +16°C° 0.1 mm 7 mps 741 mmHg 53%
13:00 +16°C° 0.1 mm 7 mps 741 mmHg 52%
14:00 +16°C° 0.1 mm 7 mps 740 mmHg 51%
15:00 +15°C° 0.5 mm 7 mps 740 mmHg 56%
16:00 +15°C° 0.5 mm 7 mps 740 mmHg 60%
17:00 +14°C° 0.5 mm 6 mps 740 mmHg 65%
18:00 +11°C° 0.5 mm 6 mps 740 mmHg 72%
19:00 +10°C° 0.5 mm 5 mps 739 mmHg 79%
20:00 +10°C° 0.5 mm 4 mps 739 mmHg 86%
21:00 +8°C° 1.1 mm 4 mps 739 mmHg 88%
22:00 +7°C° 1.1 mm 4 mps 739 mmHg 90%
23:00 +6°C° 1.1 mm 4 mps 739 mmHg 92%

24 April, Saturday

Time Temperature Precipitation Wind Pressure Humidity
00:00 +5°C° 0.8 mm 4 mps 738 mmHg 93%
01:00 +4°C° 0.8 mm 3 mps 738 mmHg 94%
02:00 +3°C° 0.8 mm 3 mps 738 mmHg 94%
03:00 +3°C° 1.2 mm 3 mps 738 mmHg 95%
04:00 +2°C° 1.2 mm 3 mps 738 mmHg 96%
05:00 +2°C° 1.2 mm 3 mps 738 mmHg 97%
06:00 +2°C° 0.6 mm 3 mps 738 mmHg 96%
07:00 +3°C° 0.6 mm 2 mps 738 mmHg 95%
08:00 +4°C° 0.6 mm 2 mps 738 mmHg 94%
09:00 +5°C° 0.2 mm 2 mps 738 mmHg 85%
10:00 +5°C° 0.2 mm 3 mps 738 mmHg 76%
11:00 +7°C° 0.2 mm 3 mps 737 mmHg 67%
12:00 +6°C° 0.4 mm 4 mps 737 mmHg 66%
13:00 +7°C° 0.4 mm 5 mps 737 mmHg 64%
14:00 +7°C° 0.4 mm 6 mps 737 mmHg 63%
15:00 +5°C° 0.4 mm 6 mps 737 mmHg 68%
16:00 +5°C° 0.4 mm 5 mps 737 mmHg 73%
17:00 +3°C° 0.4 mm 5 mps 737 mmHg 77%
18:00 +3°C° 0.1 mm 5 mps 737 mmHg 79%
19:00 +3°C° 0.1 mm 4 mps 738 mmHg 81%
20:00 +1°C° 0.1 mm 4 mps 738 mmHg 83%
21:00 0°C° 0 mm 4 mps 738 mmHg 83%
22:00 0°C° 0 mm 4 mps 738 mmHg 83%
23:00 -1°C° 0 mm 5 mps 738 mmHg 83%

25 April, Sunday

Time Temperature Precipitation Wind Pressure Humidity
00:00 -1°C° 0 mm 5 mps 738 mmHg 85%
01:00 -2°C° 0 mm 5 mps 738 mmHg 87%
02:00 -2°C° 0 mm 5 mps 738 mmHg 88%
03:00 -2°C° 0 mm 5 mps 738 mmHg 89%
04:00 -2°C° 0 mm 5 mps 738 mmHg 89%
05:00 -2°C° 0 mm 5 mps 738 mmHg 89%
06:00 -1°C° 0 mm 5 mps 738 mmHg 83%
07:00 +1°C° 0 mm 5 mps 738 mmHg 77%
08:00 +2°C° 0 mm 5 mps 738 mmHg 70%
09:00 +3°C° 0.3 mm 5 mps 738 mmHg 65%
10:00 +4°C° 0.3 mm 6 mps 738 mmHg 60%
11:00 +4°C° 0.3 mm 6 mps 738 mmHg 54%
12:00 +4°C° 0.4 mm 6 mps 738 mmHg 54%
13:00 +5°C° 0.4 mm 6 mps 738 mmHg 53%
14:00 +5°C° 0.4 mm 6 mps 738 mmHg 52%
15:00 +4°C° 0.1 mm 6 mps 738 mmHg 53%
16:00 +4°C° 0.1 mm 6 mps 738 mmHg 54%
17:00 +3°C° 0.1 mm 5 mps 738 mmHg 55%
18:00 +2°C° 0 mm 5 mps 738 mmHg 61%
19:00 +1°C° 0 mm 4 mps 738 mmHg 67%
20:00 0°C° 0 mm 3 mps 738 mmHg 73%
21:00 -1°C° 0.1 mm 4 mps 738 mmHg 78%
22:00 -1°C° 0.1 mm 4 mps 738 mmHg 82%
23:00 -1°C° 0.1 mm 5 mps 737 mmHg 86%
Show more